Regional Weather Roundup
Issued by NWS Goodland, KS

Home | Current Version | Previous Version | Text Only | Print | Product List | Glossary Off
Versions: 1 2 3 4 5 6 7 8 9 10 11 12 13 14 15 16 17 18 19 20 21 22 23 24 25 26 27 28 29 30 31 32 33 34 35 36 37 38 39 40 41 42 43 44 45 46 47 48 49 50

000
ASUS43 KGLD 190008
RWRGLD

GOODLAND FORECAST AREA HOURLY WEATHER ROUNDUP
NATIONAL WEATHER SERVICE GOODLAND KS
600 PM MDT THU SEP 18 2014

...OFFICIAL OBSERVATIONS...

CITY           SKY/WX    TMP DP  RH WIND       PRES   REMARKS
GOODLAND KS    CLEAR     83  61  47 SE12      29.91S
HILL CITY KS   CLEAR     80  66  62 NE7       29.87F
IMPERIAL NEB   CLEAR     73  62  68 SE13      29.90F
MCCOOK NEB     CLEAR     70  62  76 E8        29.90F
AKRON CO       CLEAR     83  52  34 E14       29.93S
BURLINGTON CO  CLEAR     88  37  16 S9        29.93S
LIMON CO       SUNNY     83  31  15 S10       29.99S
$$

...UNOFFICIAL OBSERVATIONS...

CITY           SKY/WX    TMP DP  RH WIND       PRES   REMARKS
COLBY KS       CLEAR     82  66  57 E13       29.91R
GOVE KS          N/A     87  32  14 MISG        N/A
NORTON KS      CLEAR     73  61  64 NE7       29.88
SHARON SPRINGS   N/A     86  52  30 S10G23      N/A
TRENTON NEB      N/A     72  32  23 SE9         N/A
YUMA CO          N/A     83  57  41 E12         N/A
$$



USA.gov is the U.S. government's official web portal to all federal, state and local government web resources and services.